User: anonymous   Login
Location: Unspecified
(0.0000°N, 0.0000°E)
Time: 06:21:53
(UTC+00:00)
Language:

LAPAN A3 - Orbit

View from above orbital plane
View from above orbital plane
View from above satellite
View from above satellite

Ground track
Ground track

The orbit data is extracted from the following two-line orbital elements,

1 41603U 16040E   18175.78559409  .00000087  00000-0  73040-5 0  9998
2 41603  97.4106 237.1709 0012540 208.3419 274.0707 15.19572107111234
Epoch (UTC): 24 June 2018 18:51:15
Eccentricity: 0.0012540
inclination: 97.4106°
perigee height: 498 km
apogee height: 516 km
right ascension of ascending node: 237.1709°
argument of perigee: 208.3419°
revolutions per day: 15.19572107
mean anomaly at epoch: 274.0707°
orbit number at epoch: 11123

The dashed part of the orbit path shows where the satellite is in the earth's shadow,  

DLR